Leesburg, VA

10:13 PM EDT on October 14, 2019 (GMT -0400)
Leesburg Executive

Weather History for KJYO - May, 2019

Change the Weather History Date:

Thursday, May 16, 2019

  Actual Average (KIAD) Record (KIAD)
Temperature  
Mean Temperature 66 °F -  
Max Temperature 78 °F 73 °F 90 °F (1998)
Min Temperature 53 °F 49 °F 35 °F (2000)
Growing Degree Days 16 (Base 50)    
Moisture  
Dew Point 51 °F    
Average Humidity 62    
Maximum Humidity 94    
Minimum Humidity 36    
Precipitation  
Precipitation 0.00 in - - ()
Sea Level Pressure  
Sea Level Pressure 29.91 in    
Wind  
Wind Speed 5 mph (WNW)    
Max Wind Speed 17 mph    
Max Gust Speed 25 mph    
Visibility 10 miles    
Events      
Averages and records for this station are not official NWS values.
T = Trace of Precipitation, MM = Missing Value Source: NWS Daily Summary

Daily Weather History Graph

Daily Weather History Graph

Search for Another Location

Airport or City:

Astronomy

May. 16, 2019 Rise Set
Actual Time 5:56 AM EDT 8:17 PM EDT
Civil Twilight 5:26 AM EDT 8:47 PM EDT
Nautical Twilight 4:49 AM EDT 9:24 PM EDT
Astronomical Twilight 4:08 AM EDT 10:05 PM EDT
Moon 5:55 PM EDT (5/16) 4:51 AM EDT (5/16)
Length of Visible Light 15h 20m
Length of Day
14h 20m
Waxing Gibbous, 94% of the Moon is Illuminated
May 16
Waxing Gibbous
May 18
Full
May 26
Last Quarter
Jun 3
New
Jun 10
First Quarter

Hourly Weather History & Observations

Time (EDT) Temp. Dew Point Humidity Pressure Visibility Wind Dir Wind Speed Gust Speed Precip Events Conditions
12:15 AM 59.0 °F 46.4 °F 63% 29.94 in 10.0 mi WSW 3.5 mph - N/A   Clear
12:35 AM 57.2 °F 46.4 °F 67% 29.94 in 10.0 mi North - - N/A   Scattered Clouds
12:55 AM 57.2 °F 46.4 °F 67% 29.94 in 10.0 mi WSW 4.6 mph - N/A   Mostly Cloudy
1:15 AM 55.4 °F 46.4 °F 72% 29.93 in 10.0 mi West 5.8 mph - N/A   Mostly Cloudy
1:35 AM 55.4 °F 46.4 °F 72% 29.92 in 10.0 mi WSW 3.5 mph - N/A   Scattered Clouds
1:55 AM 57.2 °F 46.4 °F 67% 29.92 in 10.0 mi WSW 4.6 mph - N/A   Clear
2:15 AM 55.4 °F 46.4 °F 72% 29.91 in 10.0 mi WSW 5.8 mph - N/A   Clear
2:35 AM 53.6 °F 46.4 °F 77% 29.91 in 10.0 mi West 3.5 mph - N/A   Clear
2:50 AM 55.4 °F 46.4 °F 72% 29.91 in 10.0 mi WSW 4.6 mph - N/A   Clear
3:15 AM 57.2 °F 46.4 °F 67% 29.90 in 10.0 mi West 4.6 mph - N/A   Mostly Cloudy
3:35 AM 60.8 °F 46.4 °F 59% 29.90 in 10.0 mi WSW 6.9 mph - N/A   Mostly Cloudy
3:55 AM 60.8 °F 46.4 °F 59% 29.90 in 10.0 mi West 8.1 mph - N/A   Mostly Cloudy
4:15 AM 60.8 °F 46.4 °F 59% 29.90 in 10.0 mi WSW 5.8 mph - N/A   Overcast
4:35 AM 60.8 °F 46.4 °F 59% 29.90 in 10.0 mi West 4.6 mph - N/A   Scattered Clouds
4:55 AM 59.0 °F 46.4 °F 63% 29.90 in 10.0 mi SW 4.6 mph - N/A   Clear
5:15 AM 60.8 °F 46.4 °F 59% 29.90 in 10.0 mi SSW 3.5 mph - N/A   Scattered Clouds
5:35 AM 59.0 °F 46.4 °F 63% 29.91 in 10.0 mi ESE 3.5 mph - N/A   Scattered Clouds
5:55 AM 57.2 °F 48.2 °F 72% 29.92 in 10.0 mi Calm Calm - N/A   Scattered Clouds
6:15 AM 55.4 °F 50.0 °F 82% 29.93 in 10.0 mi Calm Calm - N/A   Mostly Cloudy
6:35 AM 55.4 °F 50.0 °F 82% 29.93 in 10.0 mi ENE 3.5 mph - N/A   Overcast
6:55 AM 55.4 °F 51.8 °F 88% 29.95 in 10.0 mi ENE 5.8 mph - N/A   Overcast
7:15 AM 53.6 °F 51.8 °F 94% 29.96 in 10.0 mi NE 4.6 mph - N/A   Overcast
7:35 AM 55.4 °F 51.8 °F 88% 29.96 in 10.0 mi Calm Calm - N/A   Overcast
7:55 AM 55.4 °F 53.6 °F 94% 29.96 in 10.0 mi West 5.8 mph - N/A   Overcast
8:15 AM 57.2 °F 53.6 °F 88% 29.96 in 10.0 mi Calm Calm - N/A   Overcast
8:35 AM 57.2 °F 53.6 °F 88% 29.96 in 10.0 mi Calm Calm - N/A   Overcast
8:55 AM 59.0 °F 55.4 °F 88% 29.96 in 10.0 mi Calm Calm - N/A   Mostly Cloudy
9:15 AM 60.8 °F 55.4 °F 82% 29.96 in 10.0 mi Calm Calm - N/A   Scattered Clouds
9:35 AM 64.4 °F 55.4 °F 73% 29.95 in 10.0 mi Calm Calm - N/A   Scattered Clouds
9:55 AM 66.2 °F 55.4 °F 68% 29.95 in 10.0 mi West 5.8 mph - N/A   Scattered Clouds
10:15 AM 68.0 °F 55.4 °F 64% 29.95 in 10.0 mi West 9.2 mph 16.1 mph N/A   Scattered Clouds
10:35 AM 69.8 °F 55.4 °F 60% 29.95 in 10.0 mi WNW 9.2 mph - N/A   Clear
10:55 AM 69.8 °F 53.6 °F 56% 29.94 in 10.0 mi WNW 6.9 mph 19.6 mph N/A   Clear
11:15 AM 71.6 °F 53.6 °F 53% 29.94 in 10.0 mi NW 17.3 mph 20.7 mph N/A   Clear
11:35 AM 71.6 °F 55.4 °F 57% 29.94 in 10.0 mi NNW 11.5 mph 19.6 mph N/A   Clear
11:55 AM 71.6 °F 55.4 °F 57% 29.93 in 10.0 mi NW 11.5 mph 19.6 mph N/A   Scattered Clouds
12:15 PM 71.6 °F 55.4 °F 57% 29.93 in 10.0 mi NNW 12.7 mph 18.4 mph N/A   Mostly Cloudy
12:35 PM 71.6 °F 55.4 °F 57% 29.93 in 10.0 mi NW 10.4 mph 19.6 mph N/A   Mostly Cloudy
12:55 PM 73.4 °F 53.6 °F 50% 29.93 in 10.0 mi North 6.9 mph - N/A   Scattered Clouds
1:15 PM 73.4 °F 51.8 °F 47% 29.92 in 10.0 mi NNW 11.5 mph 21.9 mph N/A   Scattered Clouds
1:35 PM 77.0 °F 50.0 °F 39% 29.91 in 10.0 mi NW 15.0 mph 21.9 mph N/A   Scattered Clouds
1:55 PM 75.2 °F 48.2 °F 38% 29.91 in 10.0 mi NNW 13.8 mph 25.3 mph N/A   Scattered Clouds
2:15 PM 77.0 °F 50.0 °F 39% 29.91 in 10.0 mi NNW 13.8 mph 19.6 mph N/A   Scattered Clouds
2:30 PM 75.2 °F 50.0 °F 41% 29.91 in 10.0 mi NNW 15.0 mph 20.7 mph N/A   Scattered Clouds
2:55 PM 77.0 °F 48.2 °F 36% 29.90 in 10.0 mi NW 16.1 mph 23.0 mph N/A   Clear
3:15 PM 77.0 °F 50.0 °F 39% 29.89 in 10.0 mi NNW 11.5 mph 21.9 mph N/A   Clear
3:35 PM 77.0 °F 50.0 °F 39% 29.89 in 10.0 mi WNW 11.5 mph 17.3 mph N/A   Scattered Clouds
3:55 PM 77.0 °F 48.2 °F 36% 29.88 in 10.0 mi NNW 5.8 mph - N/A   Mostly Cloudy
4:15 PM 77.0 °F 50.0 °F 39% 29.88 in 10.0 mi NW 12.7 mph 20.7 mph N/A   Mostly Cloudy
4:35 PM 77.0 °F 48.2 °F 36% 29.88 in 10.0 mi NW 8.1 mph 19.6 mph N/A   Scattered Clouds
4:55 PM 78.8 °F 50.0 °F 36% 29.88 in 10.0 mi West 12.7 mph 18.4 mph N/A   Scattered Clouds
5:15 PM 77.0 °F 48.2 °F 36% 29.88 in 10.0 mi NNW 5.8 mph - N/A   Scattered Clouds
5:35 PM 78.8 °F 50.0 °F 36% 29.88 in 10.0 mi WNW 8.1 mph - N/A   Scattered Clouds
5:55 PM 77.0 °F 48.2 °F 36% 29.88 in 10.0 mi WNW 9.2 mph - N/A   Clear
6:15 PM 77.0 °F 48.2 °F 36% 29.87 in 10.0 mi WNW 6.9 mph - N/A   Clear
6:35 PM 75.2 °F 50.0 °F 41% 29.87 in 10.0 mi NW 4.6 mph - N/A   Clear
6:50 PM 75.2 °F 48.2 °F 38% 29.87 in 10.0 mi NW 6.9 mph - N/A   Clear
7:15 PM 73.4 °F 48.2 °F 41% 29.86 in 10.0 mi Calm Calm - N/A   Clear
7:35 PM 71.6 °F 51.8 °F 50% 29.87 in 10.0 mi WSW 3.5 mph - N/A   Clear
7:55 PM 69.8 °F 53.6 °F 56% 29.87 in 10.0 mi Calm Calm - N/A   Clear
8:15 PM 71.6 °F 51.8 °F 50% 29.88 in 10.0 mi Calm Calm - N/A   Clear
8:35 PM 66.2 °F 53.6 °F 64% 29.88 in 10.0 mi Calm Calm - N/A   Clear
8:55 PM 66.2 °F 55.4 °F 68% 29.88 in 10.0 mi Calm Calm - N/A   Clear
9:15 PM 64.4 °F 55.4 °F 73% 29.90 in 10.0 mi Calm Calm - N/A   Clear
9:35 PM 64.4 °F 55.4 °F 73% 29.90 in 10.0 mi Calm Calm - N/A   Clear
9:55 PM 64.4 °F 55.4 °F 73% 29.90 in 10.0 mi Calm Calm - N/A   Clear
10:15 PM 62.6 °F 55.4 °F 77% 29.91 in 10.0 mi Calm Calm - N/A   Clear
10:35 PM 62.6 °F 55.4 °F 77% 29.91 in 10.0 mi Calm Calm - N/A   Clear
10:55 PM 60.8 °F 55.4 °F 82% 29.91 in 10.0 mi Calm Calm - N/A   Clear
11:15 PM 60.8 °F 55.4 °F 82% 29.91 in 10.0 mi SSE 3.5 mph - N/A   Clear
11:35 PM 60.8 °F 55.4 °F 82% 29.91 in 10.0 mi SW 4.6 mph - N/A   Clear
11:55 PM 59.0 °F 55.4 °F 88% 29.91 in 10.0 mi SE 3.5 mph - N/A   Clear